Date String (YYYY-MM-DD hh:mm:ss) UTC,Instrument flags,Ambient pressure (hPa),Sample flow (lpm),Bypass flow (lpm),Sample temperature (°C),Ambient temperature (°C),ASC tube jacket temperature (°C),LED temperature (°C),Box temperature (°C),Sample RH (%),Span deviation,Mass concentration (μg/m³),Mass concentration (μg/m³),Mass concentration (μg/m³)
DateTimeUTC,F1_M11,P_M11,Q1_M11,Q2_M11,T1_M11,T2_M11,T3_M11,T4_M11,T5_M11,U1_M11,ZSPAN_M11,X0_M11,X2_M11,X1_M11
2021-10-12 11:00:00,,0816.0,5.01,0.00,28.9,27.8,00.0,38.1,30.6,14.6,0002.7,0026.48,0007.41,0004.78
2021-10-12 11:01:00,,0816.1,5.00,0.00,28.9,27.9,00.0,38.0,30.6,14.6,0002.6,0025.96,0007.57,0004.81
2021-10-12 11:02:00,,0816.1,4.99,0.00,28.9,27.9,00.0,38.0,30.6,14.6,0002.5,0025.09,0007.65,0004.82
2021-10-12 11:03:00,,0816.1,4.99,0.00,28.9,27.9,00.0,38.0,30.6,14.6,0002.3,0024.22,0007.65,0004.81
2021-10-12 11:04:00,,0816.1,5.00,0.00,28.9,27.9,00.0,38.0,30.6,14.6,0002.6,0024.51,0007.69,0004.82
2021-10-12 11:05:00,,0816.1,5.00,0.00,28.9,27.9,00.0,38.0,30.6,14.6,0002.2,0026.08,0007.74,0004.82
2021-10-12 11:06:00,,0816.0,5.00,0.00,28.9,27.9,00.0,38.0,30.6,14.6,0001.6,0027.11,0007.82,0004.84
2021-10-12 11:07:00,,0816.1,4.99,0.00,28.9,27.9,00.0,38.0,30.6,14.6,0001.4,0027.12,0007.95,0004.86
2021-10-12 11:08:00,,0816.0,5.01,0.00,28.9,27.9,00.0,38.0,30.7,14.6,0001.4,0026.13,0007.92,0004.87
2021-10-12 11:09:00,,0816.0,4.98,0.00,28.9,27.9,00.0,38.0,30.6,14.7,0001.7,0026.25,0008.02,0004.89
2021-10-12 11:10:00,,0816.1,5.00,0.00,28.9,27.9,00.0,38.0,30.6,14.7,0001.4,0026.16,0008.13,0004.91
2021-10-12 11:11:00,,0816.0,5.00,0.00,28.9,27.9,00.0,38.0,30.6,14.8,0001.4,0025.48,0008.00,0004.91
2021-10-12 11:12:00,,0816.0,5.00,0.00,28.9,27.9,00.0,38.0,30.6,14.9,0001.6,0025.54,0007.90,0004.91
2021-10-12 11:13:00,,0816.1,4.99,0.00,28.9,27.9,00.0,38.0,30.6,14.9,0001.6,0025.68,0007.84,0004.92
2021-10-12 11:14:00,,0816.1,5.00,0.00,28.9,27.9,00.0,38.0,30.6,14.9,0001.5,0025.85,0007.91,0004.94
2021-10-12 11:15:00,,0816.0,5.02,0.00,28.9,27.9,00.0,38.0,30.6,14.9,0001.4,0024.86,0007.98,0004.95
2021-10-12 11:16:00,,0816.0,5.00,0.00,28.9,27.9,00.0,38.0,30.6,14.9,0001.6,0023.15,0008.02,0004.96
2021-10-12 11:17:00,,0816.0,4.99,0.00,28.9,27.9,00.0,38.0,30.6,14.9,0002.0,0022.79,0008.02,0004.97
2021-10-12 11:18:00,,0815.9,5.01,0.00,28.9,27.9,00.0,38.0,30.6,14.9,0002.3,0023.65,0008.03,0004.98
2021-10-12 11:19:00,,0815.9,5.00,0.00,28.9,27.9,00.0,38.0,30.6,14.9,0002.8,0023.68,0008.07,0005.00
2021-10-12 11:20:00,,0815.9,5.00,0.00,28.8,27.9,00.0,38.0,30.6,14.9,0002.8,0024.64,0008.11,0005.01
2021-10-12 11:21:00,,0815.9,5.00,0.00,28.9,27.9,00.0,38.0,30.6,14.9,0003.1,0024.18,0008.02,0005.02
2021-10-12 11:22:00,,0815.9,4.99,0.00,28.9,27.9,00.0,38.0,30.6,14.9,0003.3,0024.55,0008.09,0005.04
2021-10-12 11:23:00,,0816.0,5.00,0.00,28.8,27.9,00.0,38.0,30.6,14.9,0003.3,0024.90,0008.15,0005.06
2021-10-12 11:24:00,,0816.0,4.99,0.00,28.8,27.9,00.0,38.0,30.6,14.9,0003.2,0024.86,0008.19,0005.07
2021-10-12 11:25:00,,0815.9,5.00,0.00,28.8,27.9,00.0,38.0,30.6,14.9,0003.1,0024.77,0008.16,0005.08
2021-10-12 11:26:00,,0816.0,5.01,0.00,28.8,27.8,00.0,38.0,30.6,14.9,0003.1,0024.47,0008.09,0005.10
2021-10-12 11:27:00,,0815.9,4.99,0.00,28.8,27.8,00.0,38.0,30.6,15.0,0003.3,0024.75,0008.09,0005.13
2021-10-12 11:28:00,,0815.9,5.00,0.00,28.8,27.8,00.0,38.0,30.6,15.0,0003.4,0024.11,0008.01,0005.15
2021-10-12 11:29:00,,0815.9,4.99,0.00,28.8,27.8,00.0,38.0,30.6,15.0,0003.1,0022.22,0007.91,0005.16
2021-10-12 11:30:00,,0815.9,5.00,0.00,28.8,27.8,00.0,38.0,30.6,15.0,0002.5,0021.46,0007.83,0005.18
2021-10-12 11:31:00,,0815.9,5.01,0.00,28.8,27.8,00.0,38.0,30.6,15.0,0002.4,0020.11,0007.84,0005.19
2021-10-12 11:32:00,,0815.9,5.00,0.00,28.8,27.8,00.0,38.0,30.6,15.0,0002.2,0020.41,0007.92,0005.21
2021-10-12 11:33:00,,0815.9,5.00,0.00,28.8,27.8,00.0,38.0,30.6,15.0,0001.7,0020.34,0007.96,0005.23
2021-10-12 11:34:00,,0815.9,5.00,0.00,28.8,27.8,00.0,38.0,30.6,15.1,0001.7,0020.07,0007.95,0005.24
2021-10-12 11:35:00,,0816.0,5.01,0.00,28.8,27.8,00.0,38.0,30.6,15.1,0001.5,0020.58,0007.90,0005.25
2021-10-12 11:36:00,,0816.0,5.00,0.00,28.8,27.8,00.0,38.0,30.6,15.1,0001.7,0020.78,0008.01,0005.27
2021-10-12 11:37:00,,0816.0,4.99,0.00,28.8,27.8,00.0,38.0,30.5,15.1,0001.9,0021.14,0008.06,0005.29
2021-10-12 11:38:00,,0816.0,5.01,0.00,28.8,27.8,00.0,38.0,30.5,15.1,0001.8,0021.57,0008.10,0005.31
2021-10-12 11:39:00,,0816.0,4.98,0.00,28.8,27.8,00.0,38.0,30.5,15.2,0001.9,0022.92,0008.21,0005.33
2021-10-12 11:40:00,,0816.0,5.01,0.00,28.8,27.8,00.0,38.0,30.5,15.2,0001.9,0023.32,0008.25,0005.35
2021-10-12 11:41:00,,0816.0,5.00,0.00,28.8,27.8,00.0,38.0,30.5,15.2,0002.3,0024.10,0008.31,0005.37
2021-10-12 11:42:00,,0816.1,5.00,0.00,28.8,27.8,00.0,38.0,30.5,15.2,0002.4,0025.05,0008.28,0005.38
2021-10-12 11:43:00,,0816.0,5.00,0.00,28.8,27.7,00.0,38.0,30.5,15.2,0002.8,0024.21,0008.20,0005.41
2021-10-12 11:44:00,,0816.1,5.00,0.00,28.8,27.7,00.0,37.9,30.5,15.3,0003.1,0023.46,0008.13,0005.41
2021-10-12 11:45:00,,0816.0,5.00,0.00,28.8,27.7,00.0,37.9,30.5,15.3,0003.0,0023.00,0008.08,0005.44
2021-10-12 11:46:00,,0816.0,4.99,0.00,28.8,27.7,00.0,38.0,30.5,15.3,0003.0,0022.66,0008.10,0005.48
2021-10-12 11:47:00,,0816.0,4.98,0.00,28.7,27.7,00.0,37.9,30.5,15.4,0002.9,0022.54,0008.03,0005.50
2021-10-12 11:48:00,,0816.0,5.00,0.00,28.7,27.7,00.0,37.9,30.4,15.4,0002.7,0021.70,0008.04,0005.52
2021-10-12 11:49:00,,0816.0,5.00,0.00,28.7,27.7,00.0,37.9,30.5,15.4,0002.6,0021.03,0007.99,0005.53
2021-10-12 11:50:00,,0816.0,5.02,0.00,28.7,27.7,00.0,37.9,30.5,15.5,0002.5,0020.87,0007.89,0005.53
2021-10-12 11:51:00,,0816.0,5.00,0.00,28.7,27.7,00.0,37.9,30.4,15.5,0002.8,0020.98,0007.83,0005.54
2021-10-12 11:52:00,,0816.0,5.00,0.00,28.7,27.7,00.0,37.9,30.4,15.5,0002.9,0020.63,0007.81,0005.56
2021-10-12 11:53:00,,0816.0,5.00,0.00,28.7,27.7,00.0,37.9,30.5,15.5,0002.9,0020.40,0007.90,0005.58
2021-10-12 11:54:00,,0816.0,5.00,0.00,28.7,27.7,00.0,37.9,30.5,15.5,0002.9,0021.20,0007.94,0005.59
2021-10-12 11:55:00,,0816.0,5.00,0.00,28.7,27.7,00.0,37.9,30.4,15.6,0002.6,0021.74,0007.99,0005.62
2021-10-12 11:56:00,,0816.0,5.01,0.00,28.7,27.7,00.0,37.9,30.4,15.6,0002.5,0022.27,0008.03,0005.64
2021-10-12 11:57:00,,0816.0,5.00,0.00,28.7,27.7,00.0,37.9,30.4,15.6,0002.7,0022.48,0008.00,0005.64
2021-10-12 11:58:00,,0816.0,5.00,0.00,28.7,27.7,00.0,37.9,30.4,15.7,0002.9,0022.39,0008.05,0005.66
2021-10-12 11:59:00,,0816.0,5.00,0.00,28.7,27.7,00.0,37.9,30.4,15.7,0002.9,0022.54,0008.06,0005.68
